Flag for Canada Weather past 2 weeks in Sault Ste. Marie, Ontario, Canada

Now
55 °F

Light rain. Fog.


Feels Like: 53 °F
Forecast: 54 / 61 °F
Wind: 9 mph from East

Location: Sault Ste Marie

Current Time: May 25, 2015 at 10:09:49 AM

Latest Report: May 25, 2015 at 9:00 AM


Visibility: 3 mi

Pressure: 29.93 "Hg

Humidity: 94%

Dew point: 54 °F

Location of Sault Ste. MarieLocation

Historic Weather in Sault Ste. Marie — Graph

°F

Sault Ste. Marie temperature yesterday

Maximum temperature yesterday: 77 °F (at 1:00 PM)
Minimum temperature yesterday: 37 °F (at 6:00 AM)
Average temperature yesterday: 59 °F

Past Weeks' High & Low Weather Summary

 TemperatureHumidityPressure
High77 °F (May 24, 1:00 PM)100% (May 11, 3:00 PM)30.47 "Hg (May 11, 3:00 PM)
Low25 °F (May 20, 6:00 AM)21% (May 14, 5:00 PM)29.62 "Hg (May 12, 2:00 AM)
Average47 °F75%30.08 "Hg
* Reported May 10 8:00 AM — May 25 8:00 AM, Sault Ste. Marie, Weather by CustomWeather, © 2015

Note: Actual official high and low records may vary slightly from our data, if they occured in-between our weather recording intervals... More about our weather records

Advertising

Sault Ste. Marie weather history for previous 24 hours

 ConditionsComfort  
Time TempWeatherWind HumidityBarometerVisibility
8:00 AM
Mon, May 25
54 °FLight rain. Fog.8 mph100%29.94 "Hg2 mi
7:00 AM54 °FLight rain. Fog.10 mph100%29.95 "Hg2 mi
6:00 AM54 °FLight rain. Fog.8 mph94%29.98 "Hg2 mi
5:51 AM54 °FLight rain. Fog.8 mph100%29.97 "Hg2 mi
5:00 AM54 °FLight rain. Fog.8 mph94%29.98 "Hg2 mi
4:47 AM54 °FLight rain. Fog.8 mph94%29.98 "Hg2 mi
4:00 AM54 °FLight rain. Mostly cloudy.7 mph94%29.99 "Hg8 mi
3:00 AM54 °FRain. Mostly cloudy.2 mph94%30.02 "Hg8 mi
2:00 AM55 °FOvercast.3 mph88%30.03 "Hg8 mi
1:00 AM57 °FMostly cloudy.3 mph77%30.05 "Hg15 mi
12:00 AM57 °FMostly cloudy.3 mph72%30.06 "Hg15 mi
11:00 PM
Sun, May 24
59 °FMostly cloudy.6 mph72%30.06 "Hg15 mi
10:00 PM61 °FMostly cloudy.7 mph63%30.06 "Hg15 mi
9:00 PM63 °FCloudy.3 mph59%30.06 "Hg15 mi
8:00 PM64 °FCloudy.6 mph56%30.06 "Hg15 mi
7:00 PM64 °FMore clouds than sun.7 mph56%30.07 "Hg15 mi
6:00 PM61 °FMostly cloudy.9 mph52%30.09 "Hg15 mi
5:00 PM73 °FMostly cloudy.7 mph36%30.06 "Hg15 mi
4:00 PM73 °FMostly cloudy.7 mph36%30.08 "Hg15 mi
3:00 PM77 °FPartly sunny.10 mph32%30.09 "Hg15 mi
2:00 PM75 °FBroken clouds.6 mph31%30.11 "Hg15 mi
1:00 PM77 °FMostly cloudy.9 mph32%30.13 "Hg15 mi
12:00 PM72 °FPartly sunny.6 mph41%30.14 "Hg15 mi
11:00 AM70 °FPartly sunny.5 mph40%30.14 "Hg15 mi
10:00 AM63 °FPartly sunny.2 mph49%30.15 "Hg15 mi
Weather by CustomWeather, © 2015

See weather overviewHow to use our weather pages